ABY642 OBBI-OMSJ

Flight info

Callsign ABY642
Flight time 0h 51m
Altitude 25000
Route DCT BHR N697 SODAK P559 KIVUS L305 EMOTA R784 GONVI GONVI4M
Aircraft A320/M-VGDW/C

Departure

Time 2026-04-24 21:20
Airport Bahrain International Airport (OBBI)

Arrival

Time 2026-04-24 22:11
Airport Sharjah International Airport (OMSJ)
Time Latitude Longitude Altitude Speed Heading
2026-04-24 21:01 26.26811 50.63084 14 ft 0 kts 211°
2026-04-24 21:12 26.26812 50.63085 14 ft 2 kts 211°
2026-04-24 21:12 26.26827 50.63095 14 ft 2 kts 211°
2026-04-24 21:12 26.26841 50.63105 14 ft 2 kts 211°
2026-04-24 21:12 26.26856 50.63115 15 ft 2 kts 211°
2026-04-24 21:13 26.26871 50.63124 16 ft 2 kts 211°
2026-04-24 21:13 26.26885 50.63134 17 ft 3 kts 211°
2026-04-24 21:13 26.26900 50.63145 16 ft 3 kts 211°
2026-04-24 21:13 26.26914 50.63154 17 ft 1 kts 185°
2026-04-24 21:14 26.26915 50.63155 17 ft 0 kts 184°
2026-04-24 21:15 26.26912 50.63153 15 ft 1 kts 192°
2026-04-24 21:15 26.26867 50.63182 14 ft 14 kts 130°
2026-04-24 21:16 26.26812 50.63276 14 ft 14 kts 121°
2026-04-24 21:16 26.26764 50.63360 14 ft 12 kts 124°
2026-04-24 21:16 26.26705 50.63460 14 ft 17 kts 122°
2026-04-24 21:16 26.26650 50.63553 15 ft 10 kts 123°
2026-04-24 21:17 26.26615 50.63614 15 ft 8 kts 122°
2026-04-24 21:17 26.26579 50.63678 16 ft 12 kts 121°
2026-04-24 21:17 26.26579 50.63754 14 ft 10 kts 49°
2026-04-24 21:17 26.26635 50.63784 14 ft 8 kts 12°
2026-04-24 21:18 26.26681 50.63792 14 ft 6 kts 47°
2026-04-24 21:18 26.26685 50.63798 14 ft 0 kts 57°
2026-04-24 21:18 26.26705 50.63836 14 ft 11 kts 56°
2026-04-24 21:18 26.26761 50.63876 14 ft 9 kts 11°
2026-04-24 21:19 26.26809 50.63841 14 ft 10 kts 303°
2026-04-24 21:19 26.26906 50.63672 14 ft 57 kts 302°
2026-04-24 21:19 26.27245 50.63085 14 ft 120 kts 303°
2026-04-24 21:19 26.27789 50.62145 59 ft 163 kts 303°
2026-04-24 21:20 26.29034 50.59975 1114 ft 180 kts 305°
2026-04-24 21:20 26.29756 50.58725 1389 ft 203 kts 305°
2026-04-24 21:20 26.30565 50.57322 1767 ft 222 kts 305°
2026-04-24 21:21 26.31389 50.55883 2646 ft 219 kts 304°
2026-04-24 21:21 26.32203 50.54448 3495 ft 219 kts 304°
2026-04-24 21:21 26.33308 50.53273 4178 ft 226 kts 330°
2026-04-24 21:21 26.34833 50.52850 4830 ft 238 kts
2026-04-24 21:22 26.36424 50.53427 5470 ft 249 kts 34°
2026-04-24 21:22 26.37510 50.54933 6121 ft 256 kts 67°
2026-04-24 21:22 26.38140 50.56804 6805 ft 259 kts 70°
2026-04-24 21:22 26.38749 50.58709 7497 ft 262 kts 71°
2026-04-24 21:23 26.39363 50.60637 8195 ft 265 kts 71°
2026-04-24 21:23 26.39988 50.62591 8857 ft 273 kts 71°
2026-04-24 21:23 26.40659 50.64676 9127 ft 296 kts 71°
2026-04-24 21:23 26.41373 50.66885 9657 ft 308 kts 71°
2026-04-24 21:24 26.42109 50.69149 10260 ft 315 kts 71°
2026-04-24 21:24 26.42884 50.71538 10478 ft 339 kts 71°
2026-04-24 21:24 26.43712 50.74091 10648 ft 361 kts 71°
2026-04-24 21:24 26.44593 50.76800 10878 ft 379 kts 71°
2026-04-24 21:25 26.45594 50.79512 11389 ft 386 kts 63°
2026-04-24 21:25 26.47048 50.82052 11991 ft 391 kts 51°
2026-04-24 21:25 26.48923 50.84266 12603 ft 395 kts 40°
2026-04-24 21:25 26.51080 50.86189 13207 ft 399 kts 40°
2026-04-24 21:26 26.52904 50.88535 13783 ft 404 kts 58°
2026-04-24 21:26 26.54176 50.91341 14290 ft 407 kts 72°
2026-04-24 21:26 26.54630 50.94444 14788 ft 408 kts 91°
2026-04-24 21:26 26.54747 50.97624 15294 ft 413 kts 85°
2026-04-24 21:27 26.55217 51.00805 15821 ft 418 kts 78°
2026-04-24 21:27 26.55968 51.03963 16322 ft 423 kts 74°
2026-04-24 21:27 26.56870 51.07108 16820 ft 427 kts 72°
2026-04-24 21:27 26.57812 51.10271 17312 ft 431 kts 72°
2026-04-24 21:28 26.58731 51.13475 17801 ft 435 kts 73°
2026-04-24 21:28 26.59603 51.16726 18271 ft 439 kts 75°
2026-04-24 21:28 26.60429 51.20028 18695 ft 442 kts 76°
2026-04-24 21:28 26.61227 51.23358 19140 ft 445 kts 76°
2026-04-24 21:29 26.62018 51.26714 19571 ft 448 kts 76°
2026-04-24 21:29 26.62813 51.30088 20006 ft 450 kts 76°
2026-04-24 21:29 26.63608 51.33438 20431 ft 453 kts 75°
2026-04-24 21:29 26.64429 51.36851 20854 ft 455 kts 75°
2026-04-24 21:30 26.65115 51.40312 21262 ft 458 kts 83°
2026-04-24 21:30 26.65320 51.43862 21669 ft 459 kts 92°
2026-04-24 21:30 26.65020 51.47408 22075 ft 459 kts 102°
2026-04-24 21:30 26.64225 51.50856 22475 ft 459 kts 111°
2026-04-24 21:31 26.63132 51.54221 22822 ft 463 kts 112°
2026-04-24 21:31 26.62024 51.57629 22948 ft 471 kts 112°
2026-04-24 21:31 26.60903 51.61100 23083 ft 478 kts 111°
2026-04-24 21:31 26.59772 51.64618 23303 ft 483 kts 111°
2026-04-24 21:32 26.58634 51.68159 23586 ft 486 kts 111°
2026-04-24 21:32 26.57487 51.71722 23857 ft 488 kts 111°
2026-04-24 21:32 26.56335 51.75303 24133 ft 490 kts 111°
2026-04-24 21:32 26.55181 51.78889 24405 ft 492 kts 111°
2026-04-24 21:33 26.54015 51.82493 24660 ft 494 kts 111°
2026-04-24 21:33 26.53235 51.84894 24810 ft 496 kts 112°
2026-04-24 21:33 26.51670 51.89690 24905 ft 498 kts 112°
2026-04-24 21:33 26.50461 51.93347 24915 ft 506 kts 112°
2026-04-24 21:34 26.49225 51.97052 24922 ft 514 kts 112°
2026-04-24 21:34 26.47968 52.00811 24907 ft 519 kts 112°
2026-04-24 21:34 26.46702 52.04594 24905 ft 521 kts 112°
2026-04-24 21:34 26.45434 52.08385 24908 ft 522 kts 112°
2026-04-24 21:35 26.44164 52.12181 24912 ft 522 kts 112°
2026-04-24 21:35 26.42894 52.15981 24915 ft 522 kts 112°
2026-04-24 21:35 26.41626 52.19778 24900 ft 522 kts 112°
2026-04-24 21:35 26.40370 52.23530 24899 ft 522 kts 112°
2026-04-24 21:36 26.39098 52.27322 24910 ft 522 kts 112°
2026-04-24 21:36 26.37825 52.31117 24897 ft 522 kts 112°
2026-04-24 21:36 26.36552 52.34910 24886 ft 522 kts 113°
2026-04-24 21:36 26.35275 52.38703 24884 ft 523 kts 113°
2026-04-24 21:37 26.33938 52.42473 24884 ft 523 kts 115°
2026-04-24 21:37 26.32527 52.46208 24886 ft 523 kts 116°
2026-04-24 21:37 26.31068 52.49923 24899 ft 522 kts 116°
2026-04-24 21:37 26.29594 52.53620 24897 ft 523 kts 116°
2026-04-24 21:38 26.28121 52.57322 24900 ft 523 kts 116°
2026-04-24 21:38 26.26663 52.61036 24898 ft 523 kts 116°
2026-04-24 21:38 26.25225 52.64753 24897 ft 523 kts 115°
2026-04-24 21:38 26.23798 52.68478 24887 ft 523 kts 115°
2026-04-24 21:39 26.22380 52.72204 24894 ft 522 kts 115°
2026-04-24 21:39 26.20964 52.75936 24891 ft 522 kts 115°
2026-04-24 21:39 26.19548 52.79661 24887 ft 522 kts 115°
2026-04-24 21:39 26.18132 52.83380 24885 ft 522 kts 115°
2026-04-24 21:40 26.16711 52.87100 24882 ft 522 kts 115°
2026-04-24 21:40 26.15285 52.90813 24873 ft 522 kts 115°
2026-04-24 21:40 26.13871 52.94477 24881 ft 522 kts 115°
2026-04-24 21:40 26.12417 52.98234 24881 ft 522 kts 115°
2026-04-24 21:41 26.11003 53.01892 24880 ft 522 kts 115°
2026-04-24 21:41 26.09574 53.05605 24876 ft 522 kts 115°
2026-04-24 21:41 26.08176 53.09333 24872 ft 522 kts 114°
2026-04-24 21:41 26.06808 53.13072 24876 ft 522 kts 114°
2026-04-24 21:42 26.05454 53.16820 24878 ft 522 kts 114°
2026-04-24 21:42 26.04106 53.20562 24881 ft 522 kts 114°
2026-04-24 21:42 26.02747 53.24310 24881 ft 522 kts 114°
2026-04-24 21:42 26.01374 53.28054 24876 ft 522 kts 114°
2026-04-24 21:43 25.99988 53.31792 24879 ft 523 kts 114°
2026-04-24 21:43 25.98599 53.35525 24875 ft 523 kts 114°
2026-04-24 21:43 25.97209 53.39265 24880 ft 523 kts 114°
2026-04-24 21:43 25.95823 53.43001 24881 ft 524 kts 114°
2026-04-24 21:44 25.94436 53.46740 24883 ft 524 kts 114°
2026-04-24 21:44 25.93052 53.50485 24886 ft 524 kts 114°
2026-04-24 21:44 25.91706 53.54248 24887 ft 524 kts 113°
2026-04-24 21:44 25.90401 53.58029 24889 ft 524 kts 112°
2026-04-24 21:45 25.89119 53.61819 24885 ft 524 kts 112°
2026-04-24 21:45 25.87856 53.65564 24886 ft 524 kts 112°
2026-04-24 21:45 25.86574 53.69349 24886 ft 524 kts 112°
2026-04-24 21:45 25.85281 53.73136 24885 ft 524 kts 112°
2026-04-24 21:46 25.83977 53.76916 24881 ft 523 kts 112°
2026-04-24 21:46 25.82666 53.80684 24872 ft 523 kts 112°
2026-04-24 21:46 25.81361 53.84424 24873 ft 512 kts 112°
2026-04-24 21:46 25.80498 53.86895 24876 ft 505 kts 112°
2026-04-24 21:47 25.78825 53.91689 24876 ft 501 kts 112°
2026-04-24 21:47 25.78013 53.94137 24877 ft 501 kts 109°
2026-04-24 21:47 25.77235 53.97855 24877 ft 503 kts 98°
2026-04-24 21:47 25.77022 54.01720 24877 ft 503 kts 88°
2026-04-24 21:48 25.77382 54.05574 24876 ft 502 kts 78°
2026-04-24 21:48 25.78297 54.09299 24875 ft 500 kts 69°
2026-04-24 21:48 25.79463 54.12933 24679 ft 497 kts 69°
2026-04-24 21:48 25.80610 54.16531 24037 ft 491 kts 69°
2026-04-24 21:49 25.81738 54.20080 23216 ft 482 kts 69°
2026-04-24 21:49 25.82843 54.23563 22057 ft 476 kts 69°
2026-04-24 21:49 25.83932 54.27002 21010 ft 467 kts 69°
2026-04-24 21:49 25.84998 54.30369 20020 ft 459 kts 69°
2026-04-24 21:50 25.86052 54.33691 19047 ft 452 kts 69°
2026-04-24 21:50 25.86881 54.37032 18088 ft 446 kts 79°
2026-04-24 21:50 25.87148 54.40434 17051 ft 439 kts 91°
2026-04-24 21:50 25.86869 54.43773 16105 ft 432 kts 102°
2026-04-24 21:51 25.86096 54.46931 15556 ft 429 kts 109°
2026-04-24 21:51 25.85141 54.50066 15097 ft 427 kts 110°
2026-04-24 21:51 25.84165 54.53149 14660 ft 420 kts 110°
2026-04-24 21:51 25.83186 54.56178 14203 ft 414 kts 111°
2026-04-24 21:52 25.82216 54.59164 13781 ft 408 kts 111°
2026-04-24 21:52 25.81263 54.62111 13433 ft 400 kts 111°
2026-04-24 21:52 25.80345 54.64975 13178 ft 390 kts 110°
2026-04-24 21:52 25.79445 54.67801 12926 ft 386 kts 110°
2026-04-24 21:53 25.78559 54.70606 12676 ft 384 kts 110°
2026-04-24 21:53 25.77680 54.73399 12426 ft 383 kts 110°
2026-04-24 21:53 25.76803 54.76186 12179 ft 381 kts 110°
2026-04-24 21:53 25.75928 54.78958 11938 ft 380 kts 110°
2026-04-24 21:54 25.75054 54.81719 11695 ft 379 kts 110°
2026-04-24 21:54 25.74193 54.84436 11452 ft 368 kts 110°
2026-04-24 21:54 25.73356 54.87074 11213 ft 358 kts 110°
2026-04-24 21:54 25.72540 54.89643 10980 ft 349 kts 110°
2026-04-24 21:55 25.71745 54.92143 10788 ft 339 kts 110°
2026-04-24 21:55 25.70973 54.94578 10600 ft 330 kts 110°
2026-04-24 21:55 25.70221 54.96944 10463 ft 320 kts 110°
2026-04-24 21:55 25.69492 54.99237 10352 ft 310 kts 110°
2026-04-24 21:56 25.68785 55.01458 10237 ft 300 kts 110°
2026-04-24 21:56 25.68007 55.03560 10117 ft 291 kts 119°
2026-04-24 21:56 25.67013 55.05487 9997 ft 286 kts 121°
2026-04-24 21:56 25.66024 55.07387 9982 ft 284 kts 121°
2026-04-24 21:57 25.65048 55.09256 9985 ft 284 kts 121°
2026-04-24 21:57 25.64057 55.11155 9982 ft 284 kts 121°
2026-04-24 21:57 25.63069 55.13057 9766 ft 284 kts 121°
2026-04-24 21:57 25.62087 55.14951 9516 ft 283 kts 121°
2026-04-24 21:58 25.61111 55.16835 9271 ft 282 kts 121°
2026-04-24 21:58 25.60137 55.18718 9022 ft 281 kts 121°
2026-04-24 21:58 25.59166 55.20592 8773 ft 280 kts 121°
2026-04-24 21:58 25.58197 55.22460 8599 ft 279 kts 121°
2026-04-24 21:59 25.57230 55.24326 8450 ft 279 kts 121°
2026-04-24 21:59 25.56269 55.26186 8311 ft 278 kts 121°
2026-04-24 21:59 25.55308 55.28051 8165 ft 279 kts 121°
2026-04-24 21:59 25.54343 55.29917 8025 ft 279 kts 121°
2026-04-24 22:00 25.53376 55.31786 7881 ft 279 kts 121°
2026-04-24 22:00 25.52408 55.33645 7653 ft 279 kts 121°
2026-04-24 22:00 25.51437 55.35499 7436 ft 278 kts 121°
2026-04-24 22:00 25.50467 55.37347 7170 ft 276 kts 121°
2026-04-24 22:01 25.49516 55.39158 6897 ft 275 kts 121°
2026-04-24 22:01 25.48557 55.40982 6621 ft 274 kts 121°
2026-04-24 22:01 25.47597 55.42791 6315 ft 271 kts 121°
2026-04-24 22:01 25.46625 55.44573 5987 ft 269 kts 122°
2026-04-24 22:02 25.45653 55.46339 5588 ft 266 kts 122°
2026-04-24 22:02 25.44697 55.48072 5249 ft 257 kts 122°
2026-04-24 22:02 25.43760 55.49702 4962 ft 248 kts 123°
2026-04-24 22:02 25.42824 55.51282 4555 ft 245 kts 123°
2026-04-24 22:03 25.41886 55.52851 4212 ft 244 kts 124°
2026-04-24 22:03 25.40955 55.54409 3931 ft 242 kts 123°
2026-04-24 22:03 25.40031 55.55959 3648 ft 241 kts 123°
2026-04-24 22:03 25.39112 55.57506 3370 ft 240 kts 123°
2026-04-24 22:04 25.38199 55.59047 3086 ft 239 kts 123°
2026-04-24 22:04 25.37309 55.60589 3003 ft 238 kts 121°
2026-04-24 22:04 25.36438 55.62149 3006 ft 239 kts 121°
2026-04-24 22:04 25.35571 55.63719 3006 ft 239 kts 121°
2026-04-24 22:05 25.34708 55.65290 3005 ft 239 kts 121°
2026-04-24 22:05 25.33844 55.66864 3007 ft 240 kts 121°
2026-04-24 22:05 25.32975 55.68436 3007 ft 239 kts 120°
2026-04-24 22:05 25.32106 55.70003 3007 ft 239 kts 121°
2026-04-24 22:06 25.30997 55.71357 2996 ft 239 kts 148°
2026-04-24 22:06 25.29482 55.72063 2997 ft 237 kts 176°
2026-04-24 22:06 25.27897 55.71825 3001 ft 226 kts 206°
2026-04-24 22:06 25.26712 55.70838 2991 ft 208 kts 241°
2026-04-24 22:07 25.26272 55.69377 3003 ft 200 kts 267°
2026-04-24 22:07 25.26196 55.67847 2995 ft 199 kts 271°
2026-04-24 22:07 25.26176 55.66344 2995 ft 197 kts 272°
2026-04-24 22:07 25.26161 55.64900 3004 ft 179 kts 272°
2026-04-24 22:08 25.26337 55.63611 2969 ft 162 kts 293°
2026-04-24 22:08 25.26892 55.62503 2540 ft 170 kts 304°
2026-04-24 22:08 25.27544 55.61388 2055 ft 176 kts 304°
2026-04-24 22:08 25.28204 55.60251 1629 ft 174 kts 304°
2026-04-24 22:09 25.28839 55.59154 1347 ft 163 kts 303°
2026-04-24 22:09 25.29320 55.58320 1160 ft 150 kts 303°
2026-04-24 22:09 25.29870 55.57371 957 ft 145 kts 303°
2026-04-24 22:09 25.30411 55.56440 773 ft 143 kts 303°
2026-04-24 22:10 25.30944 55.55511 624 ft 143 kts 303°
2026-04-24 22:10 25.31479 55.54576 417 ft 147 kts 304°
2026-04-24 22:10 25.32040 55.53612 224 ft 149 kts 303°
2026-04-24 22:10 25.32579 55.52669 101 ft 135 kts 304°
2026-04-24 22:11 25.33003 55.51937 93 ft 89 kts 302°
2026-04-24 22:11 25.33251 55.51503 89 ft 54 kts 302°
2026-04-24 22:11 25.33432 55.51187 85 ft 30 kts 301°
2026-04-24 22:11 25.33455 55.51024 84 ft 21 kts 245°
2026-04-24 22:12 25.33377 55.50954 87 ft 12 kts 213°
2026-04-24 22:12 25.33317 55.50911 83 ft 11 kts 212°
2026-04-24 22:12 25.33235 55.50854 86 ft 15 kts 213°
2026-04-24 22:12 25.33152 55.50870 87 ft 14 kts 125°
2026-04-24 22:13 25.33104 55.50943 88 ft 6 kts 142°
2026-04-24 22:13 25.33073 55.50937 85 ft 3 kts 209°
2026-04-24 22:13 25.33043 55.50898 86 ft 8 kts 273°
2026-04-24 22:13 25.33067 55.50862 86 ft 0 kts 313°